Dodge City, KS

6:51 AM CST on November 20, 2017 (GMT -0600)
Dodge City Regional

Weather History for KDDC - November, 2011

Change the Weather History Date:

Wednesday, November 9, 2011

  Actual Average Record
Temperature  
Mean Temperature 42 °F -  
Max Temperature 51 °F 55 °F 84 °F (2012)
Min Temperature 32 °F 32 °F 9 °F (1991)
Degree Days  
Heating Degree Days 24    
Moisture  
Dew Point 27 °F    
Average Humidity 65    
Maximum Humidity 85    
Minimum Humidity 35    
Precipitation  
Precipitation 0.00 in - - ()
Sea Level Pressure  
Sea Level Pressure 30.40 in    
Wind  
Wind Speed 13 mph (NW)    
Max Wind Speed 18 mph    
Max Gust Speed 24 mph    
Visibility 10 miles    
Events      
Averages and records for this station are not official NWS values.
T = Trace of Precipitation, MM = Missing Value Source: NWS Daily Summary

Daily Weather History Graph

Daily Weather History Graph

Search for Another Location

Airport or City:

Trip Planner

Search our weather history database for the weather conditions in past years. The results will help you decide how hot, cold, wet, or windy it might be!

Date:

Astronomy

Nov. 09, 2011 Rise Set
Actual Time 7:13 AM CST 5:33 PM CST
Civil Twilight 6:45 AM CST 6:01 PM CST
Nautical Twilight 6:14 AM CST 6:32 PM CST
Astronomical Twilight 5:43 AM CST 7:03 PM CST
Moon 4:46 PM CST (11/9) 6:10 AM CST (11/9)
Length of Visible Light 11h 15m
Length of Day
10h 20m
Waxing Gibbous, 99% of the Moon is Illuminated
Nov 9
Waxing Gibbous
Nov 10
Full
Nov 18
Last Quarter
Nov 25
New
Dec 2
First Quarter

Hourly Weather History & Observations

Time (CST) Temp. Windchill Dew Point Humidity Pressure Visibility Wind Dir Wind Speed Gust Speed Precip Events Conditions
12:52 AM 34.0 °F 24.6 °F 30.0 °F 85% 30.26 in 10.0 mi WNW 13.8 mph - N/A   Clear
1:52 AM 33.1 °F 23.9 °F 28.9 °F 85% 30.27 in 10.0 mi NW 12.7 mph - N/A   Clear
2:52 AM 33.1 °F 22.6 °F 28.0 °F 82% 30.28 in 10.0 mi WNW 16.1 mph - N/A   Clear
3:52 AM 33.1 °F 24.9 °F 28.0 °F 82% 30.31 in 10.0 mi WNW 10.4 mph - N/A   Clear
4:52 AM 33.1 °F 23.9 °F 28.0 °F 82% 30.32 in 10.0 mi WNW 12.7 mph - N/A   Clear
5:52 AM 33.1 °F 21.9 °F 27.0 °F 78% 30.33 in 10.0 mi NW 18.4 mph - N/A   Clear
6:52 AM 32.0 °F 21.2 °F 27.0 °F 82% 30.36 in 10.0 mi NW 16.1 mph - N/A   Clear
7:52 AM 33.1 °F 23.4 °F 27.0 °F 78% 30.39 in 10.0 mi NNW 13.8 mph - N/A   Clear
8:52 AM 36.0 °F 27.5 °F 27.0 °F 70% 30.43 in 10.0 mi NNW 12.7 mph - N/A   Clear
9:52 AM 39.9 °F 32.5 °F 28.9 °F 65% 30.46 in 10.0 mi NNW 12.7 mph - N/A   Clear
10:52 AM 44.1 °F 37.7 °F 30.0 °F 58% 30.47 in 10.0 mi NNW 12.7 mph - N/A   Clear
11:52 AM 48.0 °F - 30.0 °F 50% 30.46 in 10.0 mi NNW 13.8 mph - N/A   Clear
12:52 PM 50.0 °F - 26.1 °F 39% 30.44 in 10.0 mi North 13.8 mph 21.9 mph N/A   Clear
1:52 PM 51.1 °F - 24.1 °F 35% 30.43 in 10.0 mi NNW 13.8 mph 24.2 mph N/A   Clear
2:52 PM 51.1 °F - 24.1 °F 35% 30.42 in 10.0 mi NW 12.7 mph 21.9 mph N/A   Clear
3:52 PM 51.1 °F - 24.1 °F 35% 30.41 in 10.0 mi NNW 16.1 mph 24.2 mph N/A   Clear
4:52 PM 48.9 °F - 25.0 °F 39% 30.41 in 10.0 mi NW 12.7 mph 21.9 mph N/A   Clear
5:52 PM 39.9 °F 34.5 °F 26.1 °F 58% 30.43 in 10.0 mi NW 8.1 mph - N/A   Clear
6:52 PM 35.1 °F 29.3 °F 26.1 °F 70% 30.44 in 10.0 mi WNW 6.9 mph - N/A   Clear
7:52 PM 36.0 °F 30.3 °F 25.0 °F 64% 30.43 in 10.0 mi West 6.9 mph - N/A   Clear
8:52 PM 36.0 °F 30.3 °F 27.0 °F 70% 30.44 in 10.0 mi WSW 6.9 mph - N/A   Clear
9:52 PM 34.0 °F 26.6 °F 26.1 °F 73% 30.44 in 10.0 mi West 9.2 mph - N/A   Clear
10:52 PM 34.0 °F 26.6 °F 26.1 °F 73% 30.44 in 10.0 mi West 9.2 mph - N/A   Clear
11:52 PM 33.1 °F 26.1 °F 25.0 °F 72% 30.43 in 10.0 mi WNW 8.1 mph - N/A   Clear